TimeAKDT,TemperatureF,Dew PointF,Humidity,Sea Level PressureIn,VisibilityMPH,Wind Direction,Wind SpeedMPH,Gust SpeedMPH,PrecipitationIn,Events,Conditions,WindDirDegrees,DateUTC
12:53 AM,59.0,54.0,83,30.00,10.0,Calm,Calm,-,N/A,,Clear,0,2013-07-14 08:53:00
1:53 AM,55.9,53.1,90,30.02,10.0,Calm,Calm,-,N/A,,Clear,0,2013-07-14 09:53:00
2:53 AM,54.0,51.1,90,30.03,10.0,Calm,Calm,-,N/A,,Clear,0,2013-07-14 10:53:00
3:53 AM,53.1,48.9,86,30.04,10.0,Calm,Calm,-,N/A,,Clear,0,2013-07-14 11:53:00
4:53 AM,52.0,46.9,83,30.06,10.0,Calm,Calm,-,N/A,,Clear,0,2013-07-14 12:53:00
5:53 AM,54.0,48.9,83,30.07,10.0,Calm,Calm,-,N/A,,Clear,0,2013-07-14 13:53:00
6:53 AM,62.1,52.0,70,30.08,10.0,Calm,Calm,-,N/A,,Clear,0,2013-07-14 14:53:00
7:53 AM,66.9,50.0,54,30.08,10.0,Calm,Calm,-,N/A,,Clear,0,2013-07-14 15:53:00
8:53 AM,72.0,53.1,51,30.09,10.0,Calm,Calm,-,N/A,,Clear,0,2013-07-14 16:53:00
9:53 AM,75.9,53.1,45,30.09,10.0,Variable,3.5,-,N/A,,Clear,0,2013-07-14 17:53:00
10:53 AM,78.1,53.1,42,30.09,10.0,SW,12.7,20.7,N/A,,Clear,230,2013-07-14 18:53:00
11:53 AM,80.1,52.0,38,30.09,10.0,SW,9.2,17.3,N/A,,Clear,230,2013-07-14 19:53:00
12:53 PM,82.0,52.0,35,30.09,10.0,Variable,6.9,-,N/A,,Clear,0,2013-07-14 20:53:00
1:53 PM,84.0,50.0,31,30.09,10.0,Variable,6.9,-,N/A,,Clear,0,2013-07-14 21:53:00
2:53 PM,84.9,50.0,30,30.08,10.0,Variable,5.8,-,N/A,,Clear,0,2013-07-14 22:53:00
3:53 PM,84.9,46.9,27,30.07,10.0,SSW,8.1,-,N/A,,Clear,210,2013-07-14 23:53:00
4:53 PM,84.0,50.0,31,30.07,10.0,WNW,9.2,-,N/A,,Clear,290,2013-07-15 00:53:00
5:53 PM,86.0,48.9,28,30.06,10.0,Variable,3.5,-,N/A,,Clear,0,2013-07-15 01:53:00
6:53 PM,84.9,48.9,29,30.06,10.0,SW,4.6,-,N/A,,Clear,230,2013-07-15 02:53:00
7:53 PM,84.9,48.0,28,30.05,10.0,Calm,Calm,-,N/A,,Clear,0,2013-07-15 03:53:00
8:53 PM,81.0,55.9,42,30.05,10.0,Calm,Calm,-,N/A,,Clear,0,2013-07-15 04:53:00
9:53 PM,75.0,57.9,55,30.06,8.0,Calm,Calm,-,N/A,,Clear,0,2013-07-15 05:53:00
10:53 PM,70.0,62.1,76,30.07,10.0,Calm,Calm,-,N/A,,Partly Cloudy,0,2013-07-15 06:53:00
11:53 PM,68.0,61.0,78,30.08,10.0,Calm,Calm,-,N/A,,Mostly Cloudy,0,2013-07-15 07:53:00